EW5586 Weather Reports


time (UTC)temp
F
wind
direction
speed
knots
gust
knots
rain 1hr
in
rain 24hr
in
rain mn
in
humidity
%
barometer
mb
20260504200916 60 220 12.2 19.1 0.00 0.01 0.01 61 1002.9
20260504200416 59 250 12.2 18.2 0.00 0.01 0.01 62 1003.0
20260504195915 59 190 12.2 19.1 0.00 0.01 0.01 61 1003.0
20260504195417 60 221 13.0 19.1 0.00 0.01 0.01 60 1003.1
20260504194916 62 205 13.0 19.1 0.00 0.01 0.01 56 1003.2
20260504194415 61 214 13.0 19.1 0.00 0.01 0.01 56 1003.2
20260504193415 62 0 12.2 20.0 0.00 0.01 0.01 55 1003.4
20260504192916 61 234 12.2 20.0 0.00 0.01 0.01 57 1003.5
20260504191915 59 219 13.0 20.9 0.00 0.01 0.01 61 1003.6
20260504191409 59 194 13.9 21.7 0.00 0.01 0.01 60 1003.5
20260504190903 61 203 15.6 23.5 0.00 0.01 0.01 55 1003.6
20260504190357 62 184 16.5 24.3 0.00 0.01 0.01 55 1003.6
20260504185851 62 220 16.5 26.1 0.00 0.01 0.01 53 1003.7
20260504185345 62 183 15.6 26.1 0.00 0.01 0.01 55 1003.8
20260504184839 61 183 12.2 24.3 0.00 0.01 0.01 56 1003.7
20260504183827 59 172 12.2 19.1 0.00 0.01 0.01 61 1003.9
20260504182815 58 196 13.9 20.9 0.00 0.01 0.01 64 1003.9
20260504182309 58 207 16.5 24.3 0.00 0.01 0.01 63 1003.9
20260504181803 59 222 15.6 24.3 0.00 0.01 0.01 60 1003.9
20260504180753 58 0 15.6 21.7 0.00 0.01 0.01 60 1004.1
20260504180245 58 0 15.6 26.1 0.00 0.01 0.01 61 1004.2
20260504175739 58 0 16.5 26.1 0.00 0.01 0.01 61 1004.2
20260504175233 58 216 16.5 23.5 0.00 0.01 0.01 62 1004.2
20260504174727 57 196 17.4 27.8 0.00 0.01 0.01 64 1004.3
20260504173715 56 191 15.6 21.7 0.00 0.01 0.01 65 1004.4
20260504173210 56 210 15.6 22.6 0.00 0.01 0.01 66 1004.5
20260504172704 56 194 15.6 26.9 0.00 0.01 0.01 66 1004.5
20260504172158 57 195 16.5 26.9 0.00 0.01 0.01 65 1004.5
20260504171651 57 204 16.5 22.6 0.00 0.01 0.01 64 1004.7
20260504171145 56 199 16.5 23.5 0.00 0.01 0.01 67 1004.6
20260504170639 56 203 17.4 23.5 0.00 0.01 0.01 66 1004.7
20260504150921 53 232 13.0 20.0 0.00 0.01 0.01 70 1005.2
20260504140837 51 213 9.6 14.8 0.00 0.01 0.01 77 1005.4
20260504140340 51 213 9.6 14.8 0.00 0.01 0.01 77 1005.4
20260504130326 48 217 10.4 14.8 0.00 0.01 0.01 83 1005.6
20260504120259 49 192 7.8 13.0 0.00 0.01 0.01 81 1005.5
20260504110251 48 235 5.2 10.4 0.00 0.01 0.01 79 1005.2
20260504100540 0 0.0 0.0 0.00 0.01 0.01 1004.9
20260504082003 46 227 6.1 8.7 0.00 0.01 0.01 93 1004.9
20260504081503 46 192 5.2 8.7 0.00 0.01 0.01 93 1004.9
20260504081001 46 207 5.2 8.7 0.00 0.01 0.01 93 1004.9
20260504080458 46 205 5.2 7.8 0.00 0.01 0.01 93 1004.9
20260504050336 47 209 5.2 7.8 0.00 0.00 0.00 85 1006.9
20260504045830 48 196 4.3 7.8 0.00 0.00 0.00 83 1006.9
20260504045324 48 211 3.5 7.0 0.00 0.00 0.00 81 1007.0
20260504044312 48 240 3.5 8.7 0.00 0.00 0.00 80 1007.1
20260504042755 48 209 4.3 9.6 0.00 0.00 0.00 79 1007.0
20260504042248 47 229 4.3 9.6 0.00 0.00 0.00 79 1007.0
20260504041742 47 209 4.3 9.6 0.00 0.00 0.00 79 1007.0
20260504041236 48 225 4.3 7.0 0.00 0.00 0.00 78 1007.0
20260504040730 48 0 4.3 7.8 0.00 0.00 0.00 78 1007.2
20260504040224 48 234 5.2 11.3 0.00 0.00 0.00 78 1007.2
20260504035718 48 217 6.1 13.9 0.00 0.00 0.00 77 1007.1
20260504035212 48 215 5.2 13.9 0.00 0.00 0.00 77 1007.0
20260504034706 48 211 3.5 9.6 0.00 0.00 0.00 77 1007.0
20260504034201 48 217 5.2 12.2 0.00 0.00 0.00 76 1007.0
20260504033148 47 216 4.3 9.6 0.00 0.00 0.00 76 1007.1
20260504032642 47 225 7.8 13.0 0.00 0.00 0.00 77 1007.0
20260504031630 48 180 7.8 12.2 0.00 0.00 0.00 78 1007.1
20260504031124 48 237 7.0 11.3 0.00 0.00 0.00 75 1007.1
20260504030618 47 188 7.0 12.2 0.00 0.00 0.00 76 1007.1
20260504025606 47 211 7.8 13.0 0.00 0.00 0.00 80 1007.2
20260504025100 47 221 7.0 11.3 0.00 0.00 0.00 80 1007.3
20260504024555 47 234 7.0 10.4 0.00 0.00 0.00 80 1007.3
20260504024048 47 217 7.0 10.4 0.00 0.00 0.00 79 1007.4
20260504023544 47 228 7.0 10.4 0.00 0.00 0.00 78 1007.4
20260504023043 47 217 7.0 10.4 0.00 0.00 0.00 76 1007.5
20260504022024 47 209 7.0 11.3 0.00 0.00 0.00 77 1007.6
20260504021518 47 205 6.1 11.3 0.00 0.00 0.00 78 1007.5
20260504021012 46 213 7.0 9.6 0.00 0.00 0.00 80 1007.6
20260504020506 47 220 7.0 9.6 0.00 0.00 0.00 81 1007.6
20260504020000 47 208 7.0 9.6 0.00 0.00 0.00 80 1007.6
20260504014948 47 0 8.7 12.2 0.00 0.00 0.00 78 1007.6
20260504014444 47 216 8.7 13.0 0.00 0.00 0.00 77 1007.6
20260504013945 47 218 8.7 13.0 0.00 0.00 0.00 76 1007.6
20260504013444 47 223 8.7 13.0 0.00 0.00 0.00 75 1007.6
20260504012945 48 0 8.7 13.0 0.00 0.00 0.00 73 1007.7
20260504012444 48 221 7.8 12.2 0.00 0.00 0.00 72 1007.8
20260504011944 48 226 7.0 11.3 0.00 0.00 0.00 70 1007.8
20260504010944 49 216 7.0 11.3 0.00 0.00 0.00 69 1007.7
20260504010444 49 220 5.2 10.4 0.00 0.00 0.00 66 1007.6
20260504005944 49 202 5.2 9.6 0.00 0.00 0.00 60 1007.6
20260504005444 49 216 6.1 10.4 0.00 0.00 0.00 62 1007.6
20260504003944 48 0 9.6 14.8 0.00 0.00 0.00 68 1007.5
20260504003445 49 213 9.6 13.9 0.00 0.00 0.00 68 1007.6
20260504002444 50 194 9.6 13.9 0.00 0.00 0.00 57 1007.5
20260504001938 50 211 7.8 13.9 0.00 0.00 0.00 56 1007.5
20260504001433 51 236 7.8 14.8 0.00 0.00 0.00 51 1007.4
20260504000933 51 216 7.8 14.8 0.00 0.00 0.00 49 1007.4
20260503235932 51 219 7.8 17.4 0.00 0.00 0.00 50 1007.4
20260503234933 51 231 8.7 14.8 0.00 0.00 0.00 50 1007.4
20260503234434 51 216 7.8 14.8 0.00 0.00 0.00 49 1007.3
20260503233932 51 211 8.7 16.5 0.00 0.00 0.00 49 1007.3
20260503233432 52 198 8.7 16.5 0.00 0.00 0.00 47 1007.4
20260503232932 52 219 7.8 16.5 0.00 0.00 0.00 45 1007.4
20260503232432 52 0 8.7 16.5 0.00 0.00 0.00 45 1007.4
20260503231932 52 228 7.0 16.5 0.00 0.00 0.00 45 1007.3
20260503231432 52 238 7.0 16.5 0.00 0.00 0.00 45 1007.4
20260503230929 52 235 9.6 19.1 0.00 0.00 0.00 48 1007.4
20260503230428 52 205 8.7 19.1 0.00 0.00 0.00 45 1007.3
20260503225928 52 0 7.8 15.6 0.00 0.00 0.00 46 1007.4
20260503225428 52 239 7.8 17.4 0.00 0.00 0.00 46 1007.3
20260503224430 50 230 10.4 17.4 0.00 0.00 0.00 55 1007.3
20260503222931 49 221 11.3 15.6 0.00 0.00 0.00 65 1007.4
20260503222424 49 225 11.3 16.5 0.00 0.00 0.00 67 1007.5
20260503221924 49 0 10.4 16.5 0.00 0.00 0.00 69 1007.6
20260503220924 49 199 11.3 14.8 0.00 0.00 0.00 67 1007.6
20260503220424 49 203 12.2 15.6 0.00 0.00 0.00 65 1007.6
20260503215924 49 204 13.0 18.2 0.00 0.00 0.00 66 1007.7
20260503215424 49 207 13.0 18.2 0.00 0.00 0.00 65 1007.7
20260503214924 49 202 12.2 17.4 0.00 0.00 0.00 67 1007.7
20260503214426 49 190 12.2 17.4 0.00 0.00 0.00 68 1007.7
20260503213922 49 0 12.2 17.4 0.00 0.00 0.00 67 1007.7
20260503212924 49 194 13.0 17.4 0.00 0.00 0.00 68 1007.8
20260503212422 49 192 13.0 16.5 0.00 0.00 0.00 66 1007.8
20260503211922 49 211 13.9 17.4 0.00 0.00 0.00 67 1007.8
20260503211423 49 217 14.8 18.2 0.00 0.00 0.00 65 1007.8
20260503210923 49 0 13.0 18.2 0.00 0.00 0.00 65 1007.8
20260503210422 49 219 12.2 17.4 0.00 0.00 0.00 66 1007.9
20260503205923 49 196 12.2 15.6 0.00 0.00 0.00 66 1008.0
20260503204921 49 222 13.0 18.2 0.00 0.00 0.00 66 1008.1
20260503204415 49 198 12.2 18.2 0.00 0.00 0.00 65 1008.2
20260503203402 49 0 12.2 17.4 0.00 0.00 0.00 65 1008.2
20260503202856 49 204 13.0 19.1 0.00 0.00 0.00 64 1008.3
20260503202354 49 191 13.0 19.1 0.00 0.00 0.00 63 1008.3
20260503201852 49 176 13.0 17.4 0.00 0.00 0.00 67 1008.4
20260503201351 49 197 13.0 17.4 0.00 0.00 0.00 64 1008.4